Location: Shenandoah County Park
(38.9356°N, 78.4524°W)
Time: 17:37:13
(UTC-05:00)

BlueWalker 3 - Pass Details

Date: 30 November 2022
Orbit: 499 x 517 km, 53.2° (Epoch: 28 January)

Event Time Altitude Azimuth Distance (km) Brightness Sun altitude
Rises 17:44:17 0° 291° (WNW) 2,632 6.4 -10.1°
Reaches altitude 10° 17:47:45 10° 323° (NW) 1,740 4.9 -10.7°
Maximum altitude 17:49:22 12° 347° (NNW) 1,607 4.4 -11.0°
Drops below altitude 10° 17:50:58 10° 11° (NNE) 1,735 4.4 -11.3°
Enters shadow 17:52:00 - 24° (NNE) 1,935 4.5 -11.5°
